GW1640 Weather Reports


Display with metric or nautical units.
time (UTC)temp
F
wind
direction
speed
MPH
gust
MPH
rain 1hr
in
rain 24hr
in
rain mn
in
humidity
%
barometer
mb
20260506013020 51 189 1.0 3.0 0.00 0.89 0.00 97 1005.6
20260506012015 50 213 2.0 4.0 0.00 0.89 0.00 97 1005.7
20260506010025 50 173 1.0 3.0 0.00 0.89 0.00 95 1005.7
20260506005021 50 151 1.0 2.0 0.00 0.89 0.00 94 1005.5
20260506004016 50 190 1.0 2.0 0.00 0.89 0.00 93 1005.6
20260506003031 51 0.0 0.0 0.00 0.89 0.00 93 1005.4
20260506002026 52 197 1.0 2.0 0.00 0.89 0.00 94 1005.3
20260506001021 52 198 1.0 2.0 0.00 0.89 0.00 94 1005.5
20260506000135 52 206 2.0 4.0 0.00 0.89 0.00 94 1005.7
20260505235049 53 215 1.0 3.0 0.00 0.89 0.00 94 1005.8
20260505234017 53 220 1.0 3.0 0.00 0.89 0.00 95 1005.9
20260505233031 53 227 2.0 6.0 0.00 0.89 0.00 94 1006.0
20260505232027 54 207 1.0 4.0 0.00 0.89 0.00 94 1005.8
20260505230016 55 112 1.0 2.0 0.00 0.89 0.00 96 1005.5
20260505225035 55 131 0.0 2.0 0.00 0.89 0.00 93 1005.5
20260505224126 55 132 1.0 2.0 0.00 0.89 0.00 93 1005.4
20260505223021 55 130 0.0 2.0 0.00 0.89 0.00 92 1005.4
20260505222016 55 130 1.0 2.0 0.00 0.89 0.00 92 1005.3
20260505221031 55 125 2.0 3.0 0.00 0.89 0.00 92 1005.2
20260505220026 55 221 0.0 1.0 0.00 0.89 0.89 93 1005.5
20260505214016 56 223 2.0 4.0 0.00 0.89 0.89 93 1005.7
20260505213031 56 226 2.0 4.0 0.00 0.89 0.89 94 1005.6
20260505212026 56 239 1.0 2.0 0.00 0.89 0.89 93 1005.5
20260505211120 56 0.0 0.0 0.00 0.89 0.89 94 1005.3
20260505210015 56 253 4.0 7.0 0.00 0.89 0.89 96 1005.1
20260505205131 56 265 5.0 10.0 0.01 0.89 0.89 97 1005.0
20260505204046 56 255 4.0 6.0 0.06 0.89 0.89 96 1005.0
20260505203021 56 252 3.0 4.0 0.12 0.89 0.89 94 1005.0
20260505202016 57 101 2.0 4.0 0.22 0.89 0.89 93 1004.6
20260505201032 56 336 3.0 7.0 0.29 0.89 0.89 94 1004.7
20260505200523 56 283 4.0 6.0 0.29 0.89 0.89 94 1004.9
20260505195517 57 153 1.0 3.0 0.28 0.89 0.89 92 1005.0
20260505194532 57 41 2.0 6.0 0.26 0.87 0.87 93 1004.8
20260505193528 57 245 7.0 13.0 0.20 0.80 0.80 93 1004.6
20260505192523 57 238 8.0 14.0 0.15 0.74 0.74 91 1004.5
20260505191518 57 230 6.0 11.0 0.27 0.66 0.65 87 1004.6
20260505190533 57 242 5.0 10.0 0.40 0.61 0.60 85 1004.2
20260505185528 57 224 8.0 17.0 0.51 0.61 0.60 86 1003.9
20260505183619 58 55 12.0 21.0 0.53 0.61 0.60 83 1002.5
20260505182534 57 357 6.0 14.0 0.52 0.59 0.58 83 1002.7
20260505181530 58 44 6.0 15.0 0.32 0.39 0.38 85 1003.6
20260505180525 59 197 5.0 8.0 0.16 0.21 0.20 82 1003.8
20260505175520 60 201 2.0 7.0 0.07 0.10 0.09 82 1003.6
20260505174534 61 280 6.0 13.0 0.08 0.09 0.09 81 1003.1
20260505173529 62 305 11.0 22.0 0.07 0.08 0.07 78 1002.9
20260505172525 63 269 7.0 15.0 0.07 0.07 0.07 80 1002.9
20260505171520 63 327 2.0 7.0 0.06 0.06 0.06 78 1002.6
20260505170535 63 288 2.0 4.0 0.05 0.05 0.05 78 1002.5
20260505165629 65 229 2.0 4.0 0.03 0.03 0.03 69 1002.4
20260505164524 68 201 3.0 6.0 0.01 0.01 0.01 61 1002.4
20260505163519 70 72 7.0 13.0 0.00 0.00 0.00 54 1002.4
20260505162534 71 47 7.0 11.0 0.00 0.00 0.00 50 1002.3
20260505161529 71 59 5.0 9.0 0.00 0.00 0.00 50 1002.5
20260505160524 72 69 6.0 10.0 0.00 0.00 0.00 49 1002.7
20260505152645 75 81 6.0 9.0 0.00 0.00 0.00 44 1002.9
20260505151540 75 74 8.0 15.0 0.00 0.00 0.00 43 1003.0
20260505150535 75 87 7.0 11.0 0.00 0.00 0.00 45 1003.0
20260505140525 75 56 5.0 9.0 0.00 0.00 0.00 41 1003.6
20260505123522 78 4 4.0 9.0 0.00 0.00 0.00 38 1004.2
20260505122517 79 356 5.0 9.0 0.00 0.00 0.00 36 1004.3
20260505121532 80 35 5.0 13.0 0.00 0.00 0.00 32 1004.3
20260505120527 81 290 4.0 7.0 0.00 0.00 0.00 32 1004.4
20260505115523 81 120 2.0 7.0 0.00 0.00 0.00 32 1004.5
20260505114537 80 138 3.0 8.0 0.00 0.00 0.00 33 1004.7
20260505113632 78 131 2.0 4.0 0.00 0.00 0.00 30 1004.7
20260505112527 78 280 3.0 8.0 0.00 0.00 0.00 32 1004.8
20260505101533 75 265 2.0 3.0 0.00 0.00 0.00 39 1005.6
20260505100528 75 5 4.0 10.0 0.00 0.00 0.00 39 1005.7
20260505095523 74 100 3.0 6.0 0.00 0.00 0.00 42 1005.8
20260505094517 74 9 3.0 8.0 0.00 0.00 0.00 40 1005.8
20260505093532 74 35 4.0 9.0 0.00 0.00 0.00 44 1006.1
20260505092528 74 62 4.0 7.0 0.00 0.00 0.00 47 1006.1
20260505091522 72 257 4.0 10.0 0.00 0.00 0.00 45 1006.2
20260505090517 72 21 3.0 6.0 0.00 0.00 0.00 46 1006.3
20260505085533 71 305 3.0 7.0 0.00 0.00 0.00 48 1006.3
20260505084528 71 289 4.0 8.0 0.00 0.00 0.00 49 1006.4
20260505083523 71 290 2.0 3.0 0.00 0.00 0.00 50 1006.5
20260505081533 70 254 4.0 7.0 0.00 0.00 0.00 51 1006.6
20260505080529 70 288 2.0 4.0 0.00 0.00 0.00 52 1006.7
20260505075525 69 279 1.0 3.0 0.00 0.00 0.00 54 1006.7
20260505074519 69 359 2.0 4.0 0.00 0.00 0.00 53 1006.9
20260505073534 69 58 0.0 1.0 0.00 0.00 0.00 57 1006.9
20260505072629 69 25 2.0 3.0 0.00 0.00 0.00 57 1006.9
20260505070518 67 62 1.0 3.0 0.00 0.00 0.00 62 1007.1
20260505065533 66 45 1.0 3.0 0.00 0.00 0.00 66 1007.2
20260505064528 65 44 2.0 3.0 0.00 0.00 0.00 68 1007.3
20260505063524 64 301 0.0 2.0 0.00 0.00 0.00 69 1007.4
20260505062519 62 285 0.0 1.0 0.00 0.00 0.00 72 1007.4
20260505061533 61 354 1.0 2.0 0.00 0.00 0.00 72 1007.4
20260505060629 60 23 1.0 2.0 0.00 0.00 0.00 77 1007.4
20260505055623 58 280 0.0 1.0 0.00 0.00 0.00 81 1007.4
20260505054638 56 282 1.0 3.0 0.00 0.00 0.00 83 1007.4
20260505053533 55 108 1.0 2.0 0.00 0.00 0.00 84 1007.6
20260505052528 54 0.0 0.0 0.00 0.00 0.00 85 1007.4
20260505051643 54 107 0.0 1.0 0.00 0.00 0.00 86 1007.6
20260505050518 53 0.0 0.0 0.00 0.00 0.00 87 1007.6
20260505041532 52 37 2.0 4.0 0.00 0.00 0.00 88 1007.6
20260505040626 51 250 3.0 4.0 0.00 0.00 0.00 88 1007.6
20260505035521 52 158 1.0 3.0 0.00 0.00 0.00 87 1007.4
20260505034516 52 81 1.0 1.0 0.00 0.00 0.00 87 1007.5
20260505033531 52 59 0.0 1.0 0.00 0.00 0.00 87 1007.6
20260505032526 52 78 2.0 3.0 0.00 0.00 0.00 89 1007.8
20260505031520 52 119 1.0 2.0 0.00 0.00 0.00 86 1007.9
20260505030516 52 125 1.0 2.0 0.00 0.00 0.00 87 1007.8
20260505025531 52 129 0.0 1.0 0.00 0.00 0.00 86 1007.9
20260505024525 52 129 1.0 1.0 0.00 0.00 0.00 86 1008.1
20260505023520 52 128 3.0 3.0 0.00 0.00 0.00 86 1008.1
20260505022536 52 137 2.0 3.0 0.00 0.00 0.00 85 1008.1
20260505021531 52 136 3.0 4.0 0.00 0.00 0.00 84 1008.2
20260505020525 53 0.0 0.0 0.00 0.00 0.00 85 1008.2
20260505015520 53 132 1.0 1.0 0.00 0.00 0.00 86 1008.1
20260505014516 53 133 0.0 1.0 0.00 0.00 0.00 85 1008.2